Location: Chuathbaluk
(61.5726°N, 159.2454°W)
Time: 04:44:23
(UTC+00:00)

Transit 2A - Pass Details

Date: 04 December 2020
Orbit: 599 x 960 km, 66.7° (Epoch: 26 January)

Event Time Altitude Azimuth Distance (km) Brightness Sun altitude
Rises 11:15:06 0° 309° (NW) 3,371 - -49.9°
Reaches altitude 10° 11:17:51 10° 301° (WNW) 2,373 - -49.8°
Maximum altitude 11:22:38 33° 239° (WSW) 1,228 - -49.6°
Drops below altitude 10° 11:27:00 10° 175° (S) 2,149 - -49.4°
Sets 11:29:23 0° 166° (SSE) 3,009 - -49.3°
